Anderson, CA

12:12 AM PST on February 08, 2016 (GMT -0800)
Redding Municipal

Weather History for KRDD - January, 2013

Change the Weather History Date:

Wednesday, January 16, 2013

  Actual Average Record
Temperature  
Mean Temperature 49 °F -  
Max Temperature 71 °F 55 °F 80 °F (2014)
Min Temperature 27 °F 36 °F 19 °F (2012)
Degree Days  
Heating Degree Days 16    
Cooling Degree Days 0    
Moisture  
Dew Point 22 °F    
Average Humidity 49    
Maximum Humidity 85    
Minimum Humidity 13    
Precipitation  
Precipitation 0.00 in 0.19 in 2.07 in (1996)
Month to date precipitation 0.13 3.19  
Year to date precipitation 0.13 3.19  
Since 1 July precipitation 19.29  
Sea Level Pressure  
Sea Level Pressure 30.36 in    
Wind  
Wind Speed 5 mph (North)    
Max Wind Speed 22 mph    
Max Gust Speed 26 mph    
Visibility 10 miles    
Events      
T = Trace of Precipitation, MM = Missing Value Source: NWS Daily Summary

Daily Weather History Graph

Daily Weather History Graph

Search for Another Location

Airport or City:

Trip Planner

Search our weather history database for the weather conditions in past years. The results will help you decide how hot, cold, wet, or windy it might be!

Date:

Astronomy

Jan. 16, 2013 Rise Set
Actual Time 7:29 AM PST 5:08 PM PST
Civil Twilight 7:00 AM PST 5:38 PM PST
Nautical Twilight 6:26 AM PST 6:12 PM PST
Astronomical Twilight 5:53 AM PST 6:44 PM PST
Moon 10:07 AM PST (1/16) 11:07 PM PST (1/16)
Length of Visible Light 10h 38m
Length of Day
9h 38m
Waxing Crescent, 29% of the Moon is Illuminated
Jan 16
Waxing Crescent
Jan 18
First Quarter
Jan 26
Full
Feb 3
Last Quarter
Feb 9
New

Hourly Weather History & Observations

Time (PST) Temp. Windchill Dew Point Humidity Pressure Visibility Wind Dir Wind Speed Gust Speed Precip Events Conditions
12:53 AM 30.0 °F 26.5 °F 25.0 °F 82% 30.46 in 10.0 mi North 3.5 mph - N/A   Clear
1:53 AM 30.0 °F - 26.1 °F 85% 30.46 in 10.0 mi Calm Calm - N/A   Clear
2:53 AM 28.9 °F - 25.0 °F 85% 30.45 in 10.0 mi Calm Calm - N/A   Clear
3:53 AM 28.0 °F 22.8 °F 23.0 °F 81% 30.44 in 10.0 mi NNE 4.6 mph - N/A   Clear
4:53 AM 30.0 °F - 25.0 °F 82% 30.42 in 9.0 mi Calm Calm - N/A   Clear
5:53 AM 28.9 °F - 25.0 °F 85% 30.41 in 9.0 mi Calm Calm - N/A   Clear
6:53 AM 28.0 °F - 23.0 °F 81% 30.41 in 8.0 mi Calm Calm - N/A   Clear
7:53 AM 28.9 °F - 24.1 °F 82% 30.42 in 5.0 mi Calm Calm - N/A   Haze
8:53 AM 35.1 °F - 28.0 °F 76% 30.44 in 6.0 mi Calm Calm - N/A   Haze
9:53 AM 45.0 °F - 30.9 °F 58% 30.43 in 10.0 mi Calm Calm - N/A   Clear
10:53 AM 63.0 °F - 19.0 °F 18% 30.40 in 10.0 mi North 11.5 mph - N/A   Clear
11:53 AM 66.2 °F - 19.4 °F 17% 30.36 in 10.0 mi North 9.2 mph - N/A   Clear
12:53 PM 69.1 °F - 19.0 °F 15% 30.33 in 10.0 mi North 9.2 mph 18.4 mph N/A   Clear
1:53 PM 70.0 °F - 17.1 °F 13% 30.29 in 10.0 mi North 18.4 mph 23.0 mph N/A   Clear
2:53 PM 71.1 °F - 17.1 °F 13% 30.28 in 10.0 mi NNE 15.0 mph - N/A   Clear
3:53 PM 70.0 °F - 16.0 °F 13% 30.28 in 10.0 mi NNE 17.3 mph - N/A   Clear
4:53 PM 66.0 °F - 17.1 °F 15% 30.28 in 10.0 mi NNE 17.3 mph - N/A   Clear
5:53 PM 62.1 °F - 17.1 °F 18% 30.29 in 10.0 mi North 15.0 mph - N/A   Clear
6:53 PM 63.0 °F - 14.0 °F 15% 30.30 in 10.0 mi North 11.5 mph - N/A   Clear
7:53 PM 60.1 °F - 14.0 °F 16% 30.31 in 10.0 mi North 5.8 mph - N/A   Clear
8:53 PM 50.0 °F - 17.1 °F 27% 30.31 in 10.0 mi Variable 4.6 mph - N/A   Clear
9:53 PM 39.9 °F - 28.9 °F 65% 30.31 in 10.0 mi Calm Calm - N/A   Clear
10:53 PM 37.9 °F - 28.0 °F 68% 30.30 in 10.0 mi Calm Calm - N/A   Clear
11:53 PM 33.1 °F - 27.0 °F 78% 30.30 in 8.0 mi Calm Calm - N/A   Clear